Weather History for Augusta Bush, GA

Change the Weather History Date:

Friday, April 10, 1987

  Actual Average Record
Temperature  
Mean Temperature 62 °F 61 °F  
Max Temperature 79 °F 76 °F 90 °F (2001)
Min Temperature 44 °F 47 °F 28 °F (1996)
Degree Days  
Heating Degree Days 4 5  
Month to date heating degree days 56  
Since 1 July heating degree days 2384  
Cooling Degree Days 0 1  
Month to date cooling degree days 10  
Year to date cooling degree days 28  
Growing Degree Days 12 (Base 50)    
Moisture  
Dew Point 36 °F    
Average Humidity 47    
Maximum Humidity 86    
Minimum Humidity 16    
Precipitation  
Precipitation 0.00 in 0.10 in 1.55 in (1989)
Month to date precipitation 1.06  
Year to date precipitation 13.07  
Sea Level Pressure  
Sea Level Pressure 29.86 in    
Wind  
Wind Speed 4 mph (NW)    
Max Wind Speed 13 mph    
Max Gust Speed 24 mph    
Visibility 14 miles    
Events      
T = Trace of Precipitation, MM = Missing Value Source: NWS Daily Summary

Daily Weather History Graph

Daily Weather History Graph

Search for Another Location

Airport:

Trip Planner

Search our weather history database for the weather conditions in past years. The results will help you decide how hot, cold, wet, or windy it might be!

Date:

Astronomy

Apr. 10, 1987 Rise Set
Actual Time 7:04 AM EDT 7:54 PM EDT
Civil Twilight 6:39 AM EDT 8:19 PM EDT
Nautical Twilight 6:09 AM EDT 8:49 PM EDT
Astronomical Twilight 5:38 AM EDT 9:20 PM EDT
Moon 4:41 PM EDT (4/10) 5:20 AM EDT (4/10)
Length of Visible Light 13h 40m
Length of Day
12h 50m
Waxing Gibbous, 87% of the Moon is Illuminated
Apr 10
Waxing Gibbous
Apr 13
Full
Apr 20
Last Quarter
Apr 27
New
May 5
First Quarter

Hourly Weather History & Observations

Time (EDT) Temp. Windchill Dew Point Humidity Pressure Visibility Wind Dir Wind Speed Gust Speed Precip Events Conditions
12:00 AM 53.1 °F - 39.9 °F 61% 29.84 in 15.0 mi NE 4.6 mph - N/A   Clear
1:00 AM 50.0 °F - 41.0 °F 71% 29.84 in 15.0 mi Calm Calm - N/A   Clear
2:00 AM 46.9 °F - 39.9 °F 77% 29.85 in 15.0 mi Calm Calm - N/A   Clear
3:00 AM 45.0 °F 42.6 °F 41.0 °F 86% 29.85 in 15.0 mi North 4.6 mph - N/A   Clear
4:00 AM 46.9 °F - 37.9 °F 71% 29.85 in 15.0 mi North 3.5 mph - N/A   Clear
5:00 AM 45.0 °F 43.5 °F 36.0 °F 71% 29.85 in 15.0 mi NW 3.5 mph - N/A   Clear
6:00 AM 45.0 °F 41.2 °F 36.0 °F 71% 29.87 in 15.0 mi NNW 6.9 mph - N/A   Clear
7:00 AM 44.1 °F - 36.0 °F 73% 29.88 in 15.0 mi Calm Calm - N/A   Clear
8:00 AM 44.1 °F 41.5 °F 37.9 °F 79% 29.91 in 10.0 mi NNW 4.6 mph - N/A   Clear
9:00 AM 54.0 °F - 37.0 °F 53% 29.92 in 10.0 mi NNW 5.8 mph - N/A   Clear
10:00 AM 61.0 °F - 35.1 °F 38% 29.93 in 10.0 mi North 5.8 mph - N/A   Clear
11:00 AM 66.9 °F - 37.0 °F 33% 29.93 in 15.0 mi North 3.5 mph - N/A   Clear
12:00 PM 72.0 °F - 37.0 °F 28% 29.92 in 15.0 mi South 3.5 mph - N/A   Clear
1:00 PM 75.0 °F - 35.1 °F 23% 29.91 in 15.0 mi NW 5.8 mph - N/A   Clear
2:00 PM 78.1 °F - 33.1 °F 19% 29.86 in 15.0 mi NW 6.9 mph - N/A   Clear
3:00 PM 79.0 °F - 33.1 °F 19% 29.85 in 15.0 mi NW 8.1 mph - N/A   Clear
4:00 PM 79.0 °F - 30.0 °F 17% 29.83 in 15.0 mi NW 12.7 mph 24.2 mph N/A   Clear
5:00 PM 79.0 °F - 28.9 °F 16% 29.81 in 15.0 mi WNW 8.1 mph - N/A   Clear
6:00 PM 79.0 °F - 30.0 °F 17% 29.80 in 15.0 mi NW 5.8 mph - N/A   Clear
7:00 PM 77.0 °F - 28.9 °F 17% 29.80 in 15.0 mi West 9.2 mph - N/A   Clear
8:00 PM 72.0 °F - 30.0 °F 21% 29.80 in 15.0 mi WNW 5.8 mph - N/A   Clear
9:00 PM 60.1 °F - 37.9 °F 44% 29.81 in 10.0 mi WSW 3.5 mph - N/A   Clear
10:00 PM 55.0 °F - 42.1 °F 62% 29.81 in 10.0 mi SSW 3.5 mph - N/A   Clear
11:00 PM 51.1 °F - 41.0 °F 68% 29.84 in 10.0 mi South 3.5 mph - N/A   Clear